, AK

(GMT )
Northway

Weather History for PAOR - December, 2013

Change the Weather History Date:

Tuesday, December 31, 2013

  Actual Average Record
Temperature  
Mean Temperature -12 °F -  
Max Temperature -5 °F -5 °F 27 °F (2016)
Min Temperature -18 °F -21 °F -62 °F (1949)
Degree Days  
Heating Degree Days 76    
Moisture  
Dew Point -17 °F    
Average Humidity 78    
Maximum Humidity 83    
Minimum Humidity 74    
Precipitation  
Precipitation 0.00 in - - ()
Snow  
Snow 0.00 in - - ()
Snow Depth 11.00 in    
Sea Level Pressure  
Sea Level Pressure 30.07 in    
Wind  
Wind Speed 1 mph (SE)    
Max Wind Speed 5 mph    
Max Gust Speed -    
Visibility 10 miles    
Events Snow    
Averages and records for this station are not official NWS values.
T = Trace of Precipitation, MM = Missing Value Source: NWS Daily Summary

Daily Weather History Graph

Daily Weather History Graph

Search for Another Location

Airport or City:

Trip Planner

Search our weather history database for the weather conditions in past years. The results will help you decide how hot, cold, wet, or windy it might be!

Date:

Astronomy

Dec. 31, 2013 Rise Set
Actual Time 10:02 AM AKST 2:59 PM AKST
Civil Twilight 8:53 AM AKST 4:08 PM AKST
Nautical Twilight 7:49 AM AKST 5:12 PM AKST
Astronomical Twilight 6:52 AM AKST 6:09 PM AKST
Moon 8:42 AM AKST (12/31) 3:08 PM AKST (12/31)
Length of Visible Light 7h 14m
Length of Day
4h 56m
Waning Crescent, 1% of the Moon is Illuminated
Dec 31
Waning Crescent
Jan 1
New
Jan 7
First Quarter
Jan 15
Full
Jan 23
Last Quarter

Hourly Weather History & Observations

Time (AKST) Temp. Windchill Dew Point Humidity Pressure Visibility Wind Dir Wind Speed Gust Speed Precip Events Conditions
12:53 AM -11.9 °F - -17.0 °F 78% 30.02 in 10.0 mi Calm Calm - N/A   Partly Cloudy
1:53 AM -9.0 °F -18.2 °F -14.1 °F 79% 30.02 in 10.0 mi ESE 3.5 mph - N/A   Mostly Cloudy
3:53 AM -5.1 °F -15.8 °F -9.0 °F 83% 30.03 in 5.0 mi ESE 4.6 mph - N/A Snow Light Snow
4:53 AM -6.0 °F -14.7 °F -9.9 °F 83% 30.04 in 8.0 mi SE 3.5 mph - N/A Snow Light Snow
5:53 AM -8.0 °F -16.9 °F -11.9 °F 83% 30.05 in 10.0 mi SSE 3.5 mph - N/A   Scattered Clouds
6:53 AM -8.0 °F -19.2 °F -13.0 °F 79% 30.05 in 10.0 mi SE 4.6 mph - N/A   Partly Cloudy
7:53 AM -9.0 °F -18.2 °F -14.1 °F 79% 30.07 in 10.0 mi SSE 3.5 mph - N/A   Partly Cloudy
8:53 AM -15.0 °F - -20.0 °F 78% 30.12 in 10.0 mi Calm Calm - N/A   Partly Cloudy
9:53 AM -18.9 °F - -25.1 °F 74% 30.16 in 10.0 mi Calm Calm - N/A   Partly Cloudy
10:53 AM -18.9 °F - -23.1 °F 81% 30.15 in 10.0 mi Calm Calm - N/A   Partly Cloudy
11:53 AM -17.0 °F - -22.0 °F 78% 30.14 in 10.0 mi Calm Calm - N/A   Scattered Clouds
12:53 PM -14.1 °F -23.9 °F -18.9 °F 79% 30.14 in 10.0 mi NNE 3.5 mph - N/A   Scattered Clouds
1:53 PM -17.0 °F - -22.0 °F 78% 30.13 in 10.0 mi Calm Calm - N/A   Scattered Clouds
2:53 PM -16.1 °F - -22.0 °F 74% 30.12 in 10.0 mi Calm Calm - N/A   Scattered Clouds
3:53 PM -17.0 °F - -23.1 °F 74% 30.10 in 10.0 mi Calm Calm - N/A   Scattered Clouds
4:53 PM -16.1 °F - -22.0 °F 74% 30.12 in 10.0 mi Calm Calm - N/A   Scattered Clouds
5:53 PM -17.0 °F - -22.0 °F 78% 30.11 in 10.0 mi Calm Calm - N/A   Scattered Clouds
6:53 PM -13.0 °F - -18.9 °F 75% 30.07 in 10.0 mi Calm Calm - N/A   Mostly Cloudy
7:53 PM -11.9 °F - -17.0 °F 78% 30.05 in 10.0 mi Calm Calm - N/A   Mostly Cloudy
8:53 PM -9.9 °F - -15.0 °F 78% 30.04 in 10.0 mi Calm Calm - N/A   Mostly Cloudy
9:53 PM -9.0 °F - -14.1 °F 79% 30.02 in 10.0 mi Calm Calm - N/A   Mostly Cloudy
10:53 PM -7.1 °F - -11.9 °F 79% 29.99 in 10.0 mi Calm Calm - N/A   Mostly Cloudy
11:53 PM -7.1 °F - -11.0 °F 83% 29.96 in 10.0 mi Calm Calm - N/A   Overcast